Weather in Yuzhnyj

Russia / Samara Oblast     52°19′57″N   51°03′28″E
temp.,
°C
wind,
m/s
gust,
m/s
humid.,
%
clouds,
%
prec.,
mm/h
press.,
hPa
HPBL,
m
23 january, sat
sat2301:00−14se1290100 0.0 102421
04:00−13se3493100 0.1 1025101
07:00−12sse4794100 0.6 1025223
10:00−12sse61094100 0.7 1026267
13:00−10sse61094100 0.3 1026298
16:00−8sse5995100 0.9 1025252
19:00−7sse5995100 0.6 1025256
22:00−5sse5796100 1.4 1024204
24 january, sun
sun2401:00+1sw51199100 0.2 1024315
04:00+1sw51099100 0.4 1024298
07:000sw5998100 0.2 1025342
10:000sw5997100 0.6 1027303
13:000sw5996100 0.4 1027406
16:00−1ssw5993100 0.5 1027329
19:00−3ssw479493 0.0 1030141
22:00−4s489588 0.0 1031145
25 january, mon
mon2501:00−4s499780 0.0 1031191
04:00−4s489986 0.0 1030178
07:00−1s5897100 0.0 1031432
10:00−1sse5896100 0.0 1031421
13:00−1sse71094100 0.0 1030454
16:00−2sse6996100 0.1 1031527
19:00−2sse61094100 0.0 1031562
22:00−2sse61294100 0.0 1029516
26 january, tue
tue2601:00−1s71195100 0.0 1029581
04:00−2sse61194100 0.1 1030515
07:00−4sse61194100 0.0 1029408
10:00−4sse5109599 0.0 1029404
13:00−3sse6994100 0.0 1029437
16:00−6sse6139494 0.0 1027371
19:00−6sse61194100 0.0 1028347
22:00−3s81393100 0.1 1026604
27 january, wed
wed2701:00−6sse61296100 0.0 1027331
04:00−7sse61295100 0.1 1027307
07:00−6s61195100 0.0 1026273
10:00−7sse61295100 0.1 1027343
13:00−6sse61294100 0.0 1026358
16:00−8se349566 0.0 102775
19:00−10se469438 0.0 102894
22:00−7sse71392100 0.0 1025331